Cloud_Cover
67 27 100 21 0 0 0 0 80 100 100 100 100 100 100 100 100 29 100 100 100 100 100 99 69 70 100 100 100 99 89 96 66 47 98 100 100 100 62 100 97 62 100 29 6 5 9 5 5
97 15 31 100 19 1 0 0 0 89 100 100 100 100 100 100 100 100 100 100 100 100 100 100 98 79 51 100 100 84 84 90 100 17 96 62 89 100 96 100 100 100 99 17 36 35 5 5 5
44 68 14 100 100 62 5 0 0 0 91 100 100 100 100 96 90 100 90 100 100 100 100 100 100 98 69 74 100 100 84 98 8 19 18 100 97 100 100 93 100 100 99 1 6 25 9 5 5
26 5 5 26 57 81 100 98 0 0 1 68 100 100 100 100 100 100 100 100 100 100 87 100 100 100 82 97 95 62 24 11 61 99 100 100 62 100 100 100 100 100 100 45 6 3 42 6 5
5 33 48 5 5 5 6 4 5 11 7 2 68 100 100 100 100 100 100 100 100 100 100 93 100 100 100 100 100 100 60 37 76 82 100 74 68 100 100 100 100 100 100 31 5 5 5 5 5
5 5 5 5 5 4 18 12 5 5 10 11 4 8 60 100 100 100 100 100 100 100 100 100 100 100 100 100 100 100 100 72 100 100 96 100 63 38 100 100 100 100 100 100 20 5 5 5 5
5 4 5 5 5 3 1 0 0 0 0 0 0 0 0 7 89 93 100 100 100 94 100 100 100 100 100 100 100 100 100 98 100 100 100 100 100 100 100 100 100 100 100 100 51 5 4 2 5
4 5 3 0 0 2 2 0 0 0 0 0 0 0 0 0 0 5 5 63 100 98 26 52 100 100 100 100 100 100 100 100 100 100 100 100 100 100 100 100 100 100 100 100 100 76 5 5 5
0 0 0 0 0 0 0 0 0 0 0 0 0 0 0 0 0 0 3 4 4 53 98 6 5 64 100 100 100 100 100 100 100 100 100 100 100 100 100 100 100 100 100 100 100 100 47 30 45
0 4 5 4 3 0 0 0 0 0 0 0 0 0 0 0 0 0 0 0 0 0 3 6 5 21 92 100 100 100 100 100 100 100 100 100 100 100 100 100 100 100 100 100 100 100 100 100 100
0 4 5 0 0 0 0 0 0 0 0 0 0 0 0 0 0 0 0 0 0 0 0 0 4 5 54 100 100 100 100 100 100 91 100 100 100 100 59 100 100 100 100 100 98 100 100 100 100
0 0 0 0 0 0 0 0 0 0 0 0 0 0 0 0 0 0 0 0 0 0 0 0 0 12 3 76 99 100 100 100 100 100 100 100 100 100 100 100 100 100 100 100 100 100 100 100 100
0 0 0 0 0 0 0 0 0 0 0 0 0 0 0 0 0 0 0 0 0 0 0 0 0 7 79 39 96 100 100 100 100 100 100 100 100 100 100 100 100 100 100 100 100 100 100 100 100
0 0 0 0 0 0 0 0 0 0 0 0 0 0 0 0 0 0 0 5 4 1 0 0 0 0 64 71 99 89 100 60 95 84 100 100 100 100 100 100 100 100 100 100 100 100 100 100 100
0 0 0 0 0 0 0 0 0 0 0 0 0 0 0 0 0 2 5 5 5 5 5 4 0 0 83 91 99 38 96 78 98 100 85 18 100 99 100 100 100 100 100 100 100 100 100 100 100
0 0 0 0 0 0 0 0 0 0 0 0 0 0 0 0 1 5 5 5 5 8 5 6 6 8 2 98 84 96 33 21 100 86 81 80 82 100 100 100 100 96 100 100 100 100 100 100 100
0 0 0 0 0 1 1 0 0 0 0 3 0 3 5 5 5 60 52 68 62 82 56 73 66 66 72 23 98 79 68 100 94 60 100 64 14 100 57 100 100 100 100 100 100 100 100 100 100
0 0 0 2 1 5 5 2 5 5 5 2 5 5 5 5 5 87 84 85 72 76 94 100 100 100 100 99 3 46 100 47 88 98 100 81 97 74 47 47 97 100 100 100 100 100 100 100 100
0 2 4 0 2 30 4 4 0 12 5 5 5 0 5 8 74 96 97 98 85 95 100 100 80 98 100 100 79 0 0 2 56 22 100 100 98 94 80 5 4 64 95 100 100 100 100 100 100
0 0 0 0 5 25 4 0 4 47 60 5 4 3 29 78 89 95 96 100 83 86 99 100 97 100 100 100 100 100 78 8 0 45 100 100 100 90 87 5 2 63 100 94 100 100 100 100 100
0 0 0 2 5 0 5 4 5 39 73 62 5 4 5 23 96 96 98 100 100 100 100 100 100 100 100 100 100 100 83 4 0 0 100 100 100 100 98 80 2 26 97 100 100 100 100 100 100
0 0 0 5 26 3 15 4 23 20 5 62 6 5 5 8 99 98 100 100 100 100 100 100 100 100 100 100 100 100 100 89 15 5 46 100 100 99 95 74 100 46 71 100 100 100 99 100 100
0 0 0 4 84 96 89 99 4 61 29 7 5 5 5 60 92 97 100 100 100 100 100 100 100 100 100 100 100 100 100 100 99 100 100 50 45 90 100 100 100 79 81 100 100 100 100 100 100
0 0 3 95 92 91 5 30 5 34 87 15 5 5 5 95 99 100 100 100 100 100 100 100 100 100 100 100 100 100 100 100 100 76 99 90 79 100 100 100 100 100 100 100 100 100 100 100 100
0 2 5 32 39 3 27 45 67 94 99 83 54 5 35 100 100 100 100 100 100 100 100 100 100 100 100 100 100 100 100 100 100 100 100 99 99 100 100 100 100 100 100 100 100 100 100 100 100
5 3 3 19 5 2 4 24 56 100 100 100 99 40 86 100 100 100 100 100 100 100 100 100 100 100 100 100 100 100 100 100 100 100 100 100 100 100 100 100 100 100 100 100 100 100 100 100 100
5 22 8 28 40 99 2 4 6 100 100 100 100 78 100 100 100 100 100 100 100 100 100 100 100 100 100 100 100 100 100 100 100 100 100 100 100 100 100 100 100 100 100 100 100 100 100 100 100
3 5 87 88 93 48 0 3 65 100 100 100 87 100 100 100 100 100 100 100 100 100 100 100 100 100 100 100 100 100 100 100 100 100 100 100 100 100 100 100 100 100 100 100 100 100 100 100 100
6 21 29 63 55 100 85 12 5 98 100 97 100 100 100 100 100 100 100 100 100 100 100 100 100 100 100 100 100 100 100 100 100 100 100 100 100 100 100 100 100 100 100 100 100 100 100 100 100
5 17 6 69 99 100 98 19 67 42 100 100 100 100 100 100 100 100 100 100 100 100 100 100 100 100 100 100 100 100 100 100 100 100 100 100 100 100 100 100 100 100 100 100 100 100 100 100 100